RH
8 8 7 7 7 5 4 5 6 6 5 6 45 66 68 72 72 78 80 74 90 82 98 98 96 76 58 58 55 39 27 20 20 30 31 30 36 46 46 44 52 53 48 55 57
5 6 7 7 7 6 5 3 5 5 5 5 13 63 66 66 64 76 76 67 83 86 95 94 89 78 63 70 72 79 73 35 15 24 32 34 33 37 39 36 44 38 45 48 51
4 4 4 6 6 6 5 4 3 4 5 5 5 14 66 70 65 78 77 68 84 90 94 91 93 95 87 83 85 77 69 59 22 16 17 22 32 34 33 37 40 34 39 38 47
4 4 3 3 4 5 5 5 3 4 4 5 5 5 8 57 63 72 76 62 67 94 100 98 95 89 90 86 92 77 76 80 68 51 17 18 21 24 28 33 37 37 39 41 45
6 5 4 3 3 4 4 5 4 3 4 4 4 4 6 8 28 41 52 71 37 54 67 83 100 82 90 96 88 85 92 88 99 65 54 21 12 12 16 16 21 24 38 38 35
6 6 5 4 4 3 3 4 4 3 3 4 4 4 5 6 6 10 36 77 48 40 34 60 90 72 93 97 83 84 98 95 96 80 71 72 39 15 12 22 20 20 23 32 33
6 6 6 5 5 4 3 3 4 3 3 3 4 4 4 4 4 6 10 47 55 30 23 52 96 65 94 93 98 97 89 99 86 89 55 63 74 17 17 13 14 14 16 25 29
5 5 5 5 5 5 4 4 3 4 3 3 4 4 4 4 4 5 6 16 18 20 32 18 66 40 83 98 90 86 96 100 91 92 79 66 71 29 13 16 14 12 14 17 30
4 4 5 5 6 5 5 4 4 4 3 3 3 4 5 4 4 4 4 5 6 13 18 36 26 20 35 67 91 80 68 74 98 91 99 96 72 70 33 12 12 13 14 11 24
4 4 4 5 5 5 5 5 5 4 4 3 3 4 4 5 5 4 3 4 5 6 8 13 15 13 14 51 69 68 64 57 63 73 89 95 88 64 56 43 46 38 22 16 13
3 3 4 4 4 4 5 6 6 5 5 4 4 3 4 5 5 5 4 3 3 4 5 7 13 8 6 11 52 24 58 46 49 46 39 74 98 76 63 55 54 46 54 41 18
2 2 3 3 3 3 4 4 5 5 5 5 4 4 3 4 5 5 6 4 4 3 3 6 5 5 7 19 19 22 29 46 41 36 28 18 48 82 78 74 69 75 64 48 47
3 2 2 2 3 3 3 3 3 4 5 6 5 5 4 4 4 5 6 6 5 3 3 4 5 4 5 5 20 23 23 19 36 31 24 16 23 74 86 77 74 81 88 85 76
4 3 3 2 2 2 2 2 3 4 4 4 6 6 5 5 5 5 6 6 6 4 4 4 4 5 4 6 8 9 20 12 16 24 16 12 8 12 33 64 72 77 92 89 80
6 5 5 3 3 3 3 3 3 3 4 4 4 5 6 6 6 5 5 6 6 6 5 8 5 4 5 5 9 12 12 10 13 7 7 5 4 5 6 9 22 53 57 67 93
17 15 10 6 5 4 4 4 4 4 4 5 6 7 5 6 6 6 5 6 5 5 6 5 6 6 5 5 5 8 7 4 4 6 5 5 4 8 6 7 10 6 9 30 58
25 24 19 17 12 7 6 5 5 5 5 6 6 9 10 7 6 7 6 6 5 5 5 5 5 5 6 7 7 5 6 6 4 4 12 13 10 6 7 7 9 12 8 58 79
29 30 30 26 20 21 12 8 7 8 6 6 8 8 11 10 12 8 6 6 6 6 5 5 5 5 5 5 5 5 4 4 4 4 16 8 7 7 6 7 11 24 36 78 97
29 28 30 34 35 23 27 19 9 9 8 7 6 8 11 17 14 13 11 5 5 5 6 5 5 10 9 7 5 4 3 3 4 7 21 21 11 8 7 14 32 68 84 93 44
22 14 11 16 23 34 29 35 10 8 11 12 12 12 11 20 24 17 12 9 5 5 5 7 9 14 11 16 15 5 4 4 5 22 27 24 24 21 27 38 58 47 48 55 64
5 3 4 5 7 25 31 31 24 10 26 44 39 33 21 23 48 26 17 18 14 8 9 8 14 26 28 22 21 15 5 5 7 30 35 34 36 36 32 51 68 66 61 59 54
3 3 4 5 7 15 28 40 30 28 61 67 58 50 40 48 44 31 23 44 33 23 14 24 32 44 37 28 14 11 9 6 6 13 18 32 39 47 37 30 32 38 43 54 63
4 5 14 10 7 8 16 25 46 7 53 73 59 52 57 51 48 51 59 65 57 31 28 38 41 48 32 20 10 7 6 6 7 7 10 16 21 21 34 36 37 30 33 41 58
5 8 21 21 16 12 9 19 34 19 20 74 60 57 59 54 49 53 64 61 58 52 21 26 28 35 34 22 9 7 7 8 9 10 11 11 15 22 28 36 38 37 51 53 64
8 15 23 30 34 18 11 12 25 41 30 78 72 70 57 54 54 57 60 64 64 61 32 31 31 27 24 19 16 14 14 15 14 15 19 23 24 23 27 38 44 66 69 75 74
23 44 62 65 46 24 18 18 44 26 37 80 87 74 59 52 56 56 58 59 66 47 28 26 22 16 13 14 15 17 18 17 16 16 22 25 30 44 48 44 49 52 53 46 36
59 69 87 91 90 40 49 60 34 23 24 97 97 87 67 51 56 56 56 56 55 50 40 34 17 17 16 14 15 19 22 24 31 47 72 84 62 78 74 65 63 77 88 99 100
Wind_Speed
12 11 9 6 5 5 5 5 5 5 6 9 10 12 15 13 9 6 5 5 11 10 10 1 10 20 19 19 23 22 21 24 26 23 21 26 27 24 19 18 16 14 18 17 11
14 13 12 9 6 5 4 4 4 5 5 8 10 12 14 13 8 7 4 7 10 10 11 14 14 22 24 23 24 24 21 24 29 25 24 22 26 24 21 20 19 17 16 14 13
14 13 13 12 10 8 5 4 5 5 5 7 6 10 12 13 9 5 4 9 12 9 14 19 18 19 18 23 21 20 20 27 26 25 23 20 19 18 21 21 18 17 19 16 13
13 14 13 13 12 11 8 6 6 6 6 6 5 8 9 10 11 7 4 8 11 9 11 10 12 10 17 18 17 17 18 26 27 25 22 19 18 16 15 20 17 14 14 17 16
12 12 13 14 14 13 12 10 7 8 8 7 5 5 9 8 7 8 6 5 8 13 14 9 7 11 17 17 15 14 14 19 17 21 22 17 17 20 16 15 17 16 14 11 12
11 11 12 14 14 15 14 13 11 8 9 9 8 6 6 8 7 6 8 8 4 4 6 11 11 8 13 17 11 11 11 10 12 16 14 17 15 18 19 18 15 16 16 13 12
12 11 11 13 14 16 16 15 14 12 10 12 11 9 7 6 6 9 7 11 11 7 5 9 6 6 14 13 11 10 10 11 15 16 17 15 15 13 17 17 17 18 17 13 12
12 12 11 11 12 15 16 16 16 15 13 13 15 13 10 8 7 6 8 11 9 8 7 4 8 9 13 10 10 12 12 10 11 13 15 15 15 10 13 14 16 17 17 17 11
11 13 13 13 13 13 14 16 17 17 16 16 16 15 14 12 10 8 6 6 6 6 6 7 7 9 12 10 9 7 11 7 7 9 9 7 10 10 11 14 16 18 17 15 15
14 14 15 16 16 16 16 16 15 17 18 17 17 16 16 17 15 12 10 11 9 9 9 8 9 12 12 13 15 10 8 7 5 6 7 5 5 7 10 12 15 17 15 16 14
18 19 18 18 18 19 20 21 19 17 17 19 19 18 18 18 18 16 15 13 12 12 11 10 12 12 6 11 14 11 10 8 6 5 5 7 6 4 7 7 10 11 12 13 14
18 21 22 22 21 21 23 23 23 23 20 21 20 20 21 21 21 21 18 16 15 14 12 14 16 13 12 8 10 11 14 12 7 7 6 4 6 7 8 8 6 5 9 7 10
12 15 21 24 24 25 24 22 20 21 24 24 24 22 25 23 23 23 20 18 15 14 15 18 19 16 15 9 13 11 4 9 9 8 8 5 7 8 10 9 8 5 5 4 4
15 14 15 18 25 26 24 25 21 20 22 24 25 23 24 26 23 24 22 21 21 21 21 23 22 19 16 13 13 11 11 9 10 11 7 6 9 11 13 14 13 12 7 8 5
19 20 19 19 19 21 24 27 24 25 24 25 23 27 27 26 26 27 25 24 24 25 23 24 22 20 17 14 16 15 14 14 14 10 8 10 12 13 13 12 11 14 15 10 9
20 22 23 25 25 21 22 23 23 25 25 21 22 21 25 27 25 26 25 25 27 26 23 25 23 22 19 19 21 20 17 16 16 14 10 19 12 18 16 13 13 14 12 8 4
23 24 25 29 30 27 27 24 25 22 22 22 22 21 24 25 25 27 26 26 27 27 26 27 26 24 23 24 24 23 20 19 21 18 17 20 21 18 21 21 19 20 11 7 11
27 29 30 31 29 29 31 30 27 21 23 26 27 28 25 26 25 26 27 28 28 29 29 30 29 27 27 26 26 25 22 23 22 20 27 26 28 25 23 23 23 22 23 10 17
25 27 31 31 31 29 33 33 25 25 29 28 29 29 27 24 23 24 25 25 26 26 29 30 30 26 28 26 22 21 22 21 23 23 31 31 31 29 26 25 22 20 22 20 22
30 29 28 32 34 30 33 32 28 30 29 30 30 28 30 21 17 18 24 24 24 26 28 28 24 24 26 20 18 18 18 18 23 26 31 35 32 31 28 27 27 28 29 26 23
31 28 27 28 31 33 36 34 33 34 35 31 29 27 25 21 12 16 25 23 24 27 28 28 28 24 20 17 17 20 21 21 22 29 28 32 34 30 31 31 31 29 28 28 29
31 25 24 24 27 30 34 37 37 44 42 33 29 26 22 20 19 23 21 18 19 23 28 28 27 25 24 23 20 20 19 22 25 23 26 28 29 32 32 35 35 33 32 31 30
27 22 18 19 23 27 29 32 37 44 46 36 34 31 27 25 24 26 19 22 19 23 27 28 28 26 28 25 26 25 22 21 23 26 28 27 29 33 36 38 40 40 39 39 38
23 22 19 15 18 20 25 29 33 40 44 35 37 37 35 28 31 27 25 26 25 22 25 22 25 26 29 30 26 25 24 24 23 27 28 29 32 33 36 37 39 41 42 42 44
23 23 20 22 16 18 21 26 30 34 38 38 37 38 34 33 33 32 29 27 28 24 16 11 19 23 24 27 26 25 27 27 25 24 25 27 32 35 37 38 39 41 44 47 50
24 23 20 21 17 17 19 22 25 33 47 45 37 36 36 36 35 35 32 34 31 27 21 21 26 25 25 26 26 26 29 30 31 32 31 31 34 35 38 41 44 46 48 51 53
24 22 21 19 16 17 15 17 23 33 46 32 40 37 35 37 38 39 41 40 38 35 31 29 25 24 26 28 29 31 31 33 35 37 37 36 36 37 40 42 45 47 50 53 56
Wind_Direction
204 204 197 204 164 145 145 151 122 100 92 102 103 135 150 160 172 136 90 48 72 82 67 116 134 109 108 106 87 82 81 82 83 122 109 107 101 101 101 101 106 105 99 102 107
213 211 210 210 208 187 161 157 159 126 106 108 115 126 151 160 177 157 130 67 69 92 77 49 83 115 115 98 90 83 78 74 81 106 111 106 108 112 115 109 112 117 114 121 121
215 217 216 214 213 217 195 177 178 160 124 113 134 132 146 167 169 169 131 86 87 99 80 69 65 100 112 96 94 91 74 75 90 82 82 92 98 112 120 119 127 126 124 116 118
217 218 220 219 216 216 215 203 190 182 158 133 136 151 148 165 168 171 174 101 101 117 104 79 64 71 111 91 95 79 74 75 77 85 89 84 99 116 115 122 130 132 127 128 131
218 219 224 223 220 218 216 214 206 189 180 167 166 155 165 177 177 174 185 110 116 137 128 96 82 79 76 84 80 75 63 63 45 81 96 95 91 90 94 109 121 123 131 131 123
216 219 224 228 226 222 220 218 212 203 191 186 191 193 171 180 188 183 170 164 171 140 120 95 75 81 103 96 82 75 80 51 75 75 79 77 94 97 91 89 102 109 118 132 129
216 218 224 224 231 227 225 221 221 212 204 196 202 204 202 207 218 190 178 189 206 207 164 134 152 226 107 90 108 114 87 66 94 83 72 64 66 87 94 99 104 101 97 116 138
212 220 223 228 230 228 226 227 223 221 213 207 206 210 204 209 211 214 185 203 224 244 243 177 163 222 141 110 127 118 105 92 97 83 87 72 68 90 100 99 100 99 94 91 102
216 219 226 231 235 235 230 229 228 226 222 218 213 215 212 213 207 212 217 206 200 218 248 207 195 223 185 172 138 119 130 128 110 105 93 72 82 82 95 102 97 93 95 94 98
239 234 231 234 241 239 239 234 230 228 228 227 225 218 219 220 217 208 214 210 196 190 215 234 237 220 223 186 185 173 166 145 139 118 116 114 105 93 83 90 93 94 96 102 107
244 245 244 243 241 244 244 245 243 240 236 230 228 225 222 225 226 214 214 217 211 208 213 227 251 260 210 224 213 211 179 168 182 155 178 162 151 141 119 102 97 101 101 112 123
246 245 246 246 244 244 246 247 246 243 241 241 234 226 223 225 228 220 217 219 217 221 217 223 234 247 262 235 271 238 206 191 203 207 192 152 198 196 185 161 132 133 124 130 131
256 249 245 246 246 246 248 247 246 243 239 236 235 233 235 229 227 231 223 226 219 219 218 229 237 235 250 255 255 261 229 180 175 202 192 171 172 177 197 205 184 206 193 189 171
260 263 261 248 244 247 248 247 242 240 242 237 236 229 230 233 230 229 222 220 214 213 210 224 239 238 238 250 250 256 267 246 220 213 245 243 195 186 208 212 222 210 222 260 233
259 256 255 260 258 248 243 244 240 240 241 244 237 236 230 228 228 229 226 223 227 228 224 234 240 244 245 245 241 238 233 247 252 230 241 242 237 230 224 220 226 224 227 242 258
266 262 258 255 252 253 255 252 245 241 239 241 240 238 236 228 224 228 224 217 225 231 227 235 239 242 243 249 244 239 228 236 247 257 234 241 242 239 261 245 243 242 240 225 252
270 264 261 258 255 253 252 251 251 249 241 236 232 231 233 234 228 223 219 219 221 220 222 229 232 235 234 235 240 239 234 233 242 237 222 235 242 249 264 270 267 267 272 220 229
270 265 263 260 258 253 251 248 246 238 237 240 238 226 225 230 227 227 223 223 224 222 224 227 234 237 238 234 238 243 239 235 234 229 220 238 251 255 260 269 273 272 276 267 216
279 272 267 266 262 252 248 245 240 233 237 233 236 242 233 224 227 227 225 222 223 224 228 232 234 233 240 246 242 236 235 231 226 226 220 234 242 248 249 248 248 242 238 250 261
292 287 275 264 260 251 246 240 224 227 231 233 232 234 233 222 225 223 229 226 222 221 225 230 229 230 239 243 244 231 226 221 217 223 223 230 236 239 234 234 234 233 241 248 253
300 287 277 264 252 242 234 231 216 213 214 219 224 221 228 224 238 217 219 226 224 219 221 225 228 231 231 230 234 229 220 217 218 221 229 231 231 233 227 223 226 234 243 249 255
298 291 278 265 252 244 239 228 210 200 205 210 217 207 205 207 224 234 225 244 243 219 222 223 227 230 233 230 224 225 230 232 223 226 235 241 243 243 244 244 246 250 255 257 263
297 290 283 270 257 247 238 235 223 202 202 201 199 199 199 202 218 223 232 245 241 224 220 222 231 238 245 239 237 236 235 239 247 244 238 241 245 249 252 255 257 259 260 264 265
296 289 279 264 255 252 242 234 222 212 203 200 193 199 200 201 222 224 229 243 249 243 228 231 234 240 247 256 255 260 260 257 253 256 258 253 250 249 249 253 258 259 258 261 264
300 290 278 276 269 241 237 230 223 208 196 196 195 202 205 205 219 226 229 242 252 261 258 248 241 243 245 252 256 259 262 263 259 253 255 256 258 259 260 259 258 257 257 259 262
302 295 276 274 248 237 226 220 214 202 200 197 198 206 208 209 224 235 236 246 250 265 272 261 259 246 242 246 251 250 255 261 263 263 256 251 255 256 260 259 259 260 262 265 270
307 291 283 273 232 222 210 211 203 198 204 203 196 210 208 218 222 232 239 245 254 261 269 267 266 263 261 258 258 256 252 253 255 259 261 261 259 254 255 257 258 257 257 258 261